STARLINK-3850 (52342 NORAD) Tracking and Keplerian Element Data

This shows tracking and keplerian element data for the satellite.

Feedback or suggestion? Click here.




ElementValue
Catalog52342
NameSTARLINK-3850
Epoch Orbit130
Epoch Day167.08334491
Epoch Year2022
RAAN202.9446
Inclination53.2173
Eccentricity0.0001313
Argument of Perigee60.6247
Mean Anonmoly88.3094
Mean Motion15.62229912
Decay Rate-0.00714922
L11 52342U 22045M 22167.08334491 -.00714922 00000+0 -86920-2 0 9992
L22 52342 53.2173 202.9446 0001313 60.6247 88.3094 15.62229912 1304

Live tracking and technical data element details for STARLINK-3850 (NORAD 52342). STARLINK-3850 can be tracked NOW for your location showing map with azimuth and elevation plus other details from your city location.

Track the satellite on the map from your city or location and see movement details for azimuth, elevation, latitude, longitude, range, height, and movement on the map or in text.







IsCatalogInMostPopularTable: catalog: 52342, numindb: 1
Update: records affected: 1



GetName: 52342 STARLINK-3850

Hit Count: updated at: Sat, 25 Jun 2022 03:57:34 GMT